G7DPE Weather Reports


time (UTC)temp
C
wind
direction
speed
KPH
gust
KPH
rain 1hr
cm
rain 24hr
cm
rain mn
cm
humidity
%
barometer
mb
20260507234503 7 0 0.0 0.0 0.00 0.00 0.00 88 1019.8
20260507233603 7 0 0.0 0.0 0.00 0.00 0.00 88 1019.7
20260507232916 8 0 0.0 0.0 0.00 0.00 0.00 86 1019.6
20260507232018 8 133 0.0 1.6 0.00 0.00 0.00 86 1019.6
20260507230903 9 141 0.0 1.6 0.00 0.00 0.00 86 1019.6
20260507230004 9 147 0.0 3.2 0.00 0.00 0.00 85 1019.7
20260507225403 9 157 0.0 3.2 0.00 0.00 0.00 84 1019.7
20260507224505 9 132 0.0 1.6 0.00 0.00 0.00 84 1019.9
20260507223603 9 136 0.0 3.2 0.00 0.00 0.00 84 1019.8
20260507222703 10 141 0.0 1.6 0.00 0.00 0.00 83 1019.9
20260507221803 10 120 0.0 1.6 0.00 0.00 0.00 82 1019.9
20260507220903 10 137 0.0 3.2 0.00 0.00 0.00 82 1019.8
20260507220218 10 145 0.0 1.6 0.00 0.00 0.00 82 1019.9
20260507215403 10 147 1.6 3.2 0.00 0.00 0.00 81 1019.9
20260507214504 10 154 1.6 3.2 0.00 0.00 0.00 80 1020.0
20260507213603 10 154 1.6 4.8 0.00 0.00 0.00 80 1019.8
20260507212703 10 158 0.0 3.2 0.00 0.00 0.00 80 1020.0
20260507211803 10 163 0.0 3.2 0.00 0.00 0.00 81 1019.9
20260507210903 10 143 0.0 1.6 0.00 0.00 0.00 81 1019.9
20260507210218 10 137 0.0 1.6 0.00 0.00 0.00 82 1019.7
20260507205403 10 0 0.0 0.0 0.00 0.00 0.00 83 1019.7
20260507204506 10 126 0.0 1.6 0.00 0.00 0.00 82 1019.8
20260507203604 10 0 0.0 0.0 0.00 0.00 0.00 81 1019.6
20260507202703 10 0 0.0 0.0 0.00 0.00 0.00 80 1019.5
20260507201803 10 122 0.0 1.6 0.00 0.00 0.00 79 1019.3
20260507200903 10 122 0.0 1.6 0.00 0.00 0.00 79 1019.4
20260507200003 10 0 0.0 0.0 0.00 0.00 0.00 80 1019.0
20260507195404 11 0 0.0 0.0 0.00 0.00 0.00 78 1019.0
20260507194503 11 0 0.0 0.0 0.00 0.00 0.00 77 1019.0
20260507193603 11 157 0.0 1.6 0.00 0.00 0.00 76 1018.9
20260507192703 11 136 1.6 4.8 0.00 0.00 0.00 75 1018.8
20260507191803 11 146 1.6 4.8 0.00 0.00 0.00 74 1018.8
20260507191118 11 151 1.6 4.8 0.00 0.00 0.00 73 1018.7
20260507190004 11 132 0.0 3.2 0.00 0.00 0.00 72 1018.5
20260507185403 11 128 0.0 3.2 0.00 0.00 0.00 71 1018.5
20260507184503 12 140 0.0 1.6 0.00 0.00 0.00 71 1018.5
20260507183603 12 141 0.0 1.6 0.00 0.00 0.00 69 1018.5
20260507182916 12 142 1.6 6.4 0.00 0.00 0.00 67 1018.5
20260507181803 12 151 3.2 6.4 0.00 0.00 0.00 65 1018.5
20260507180903 12 145 3.2 9.7 0.00 0.00 0.00 65 1018.3
20260507180217 12 119 3.2 9.7 0.00 0.00 0.00 64 1018.4
20260507175403 12 110 3.2 9.7 0.00 0.00 0.00 63 1018.3
20260507174717 13 123 3.2 9.7 0.00 0.00 0.00 63 1017.9
20260507173605 13 148 1.6 4.8 0.00 0.00 0.00 61 1018.0
20260507172703 13 146 1.6 4.8 0.00 0.00 0.00 61 1018.1
20260507171803 13 158 1.6 9.7 0.00 0.00 0.00 59 1018.3
20260507170903 13 144 1.6 4.8 0.00 0.00 0.00 58 1018.1
20260507170003 13 126 3.2 6.4 0.00 0.00 0.00 58 1018.1
20260507165404 14 140 1.6 4.8 0.00 0.00 0.00 56 1018.2
20260507164717 14 169 1.6 6.4 0.00 0.00 0.00 54 1018.3
20260507163603 14 119 1.6 6.4 0.00 0.00 0.00 54 1018.1
20260507162703 14 143 3.2 9.7 0.00 0.00 0.00 56 1018.2
20260507161803 15 169 1.6 4.8 0.00 0.00 0.00 52 1018.3
20260507160903 15 165 1.6 4.8 0.00 0.00 0.00 52 1018.3
20260507160003 14 141 1.6 6.4 0.00 0.00 0.00 54 1018.3
20260507155403 14 150 3.2 6.4 0.00 0.00 0.00 52 1018.3
20260507154504 15 158 3.2 11.3 0.00 0.00 0.00 50 1018.2
20260507153603 16 162 1.6 3.2 0.00 0.00 0.00 48 1018.3
20260507152704 15 149 3.2 6.4 0.00 0.00 0.00 51 1018.3
20260507151803 15 155 3.2 4.8 0.00 0.00 0.00 51 1018.5
20260507150903 15 164 3.2 4.8 0.00 0.00 0.00 50 1018.5
20260507150003 15 154 1.6 4.8 0.00 0.00 0.00 51 1018.5
20260507145403 14 148 1.6 4.8 0.00 0.00 0.00 51 1018.4
20260507144503 14 146 1.6 6.4 0.00 0.00 0.00 52 1018.5
20260507143818 15 152 1.6 6.4 0.00 0.00 0.00 51 1018.5
20260507142703 14 321 1.6 4.8 0.00 0.00 0.00 48 1018.4
20260507141803 15 116 0.0 6.4 0.00 0.00 0.00 46 1018.6
20260507140903 15 147 1.6 6.4 0.00 0.00 0.00 46 1018.7
20260507140003 15 147 1.6 4.8 0.00 0.00 0.00 48 1018.8
20260507135403 15 186 1.6 3.2 0.00 0.00 0.00 46 1018.6
20260507134503 15 163 1.6 3.2 0.00 0.00 0.00 45 1018.8
20260507133817 15 190 0.0 3.2 0.00 0.00 0.00 43 1018.8
20260507132703 16 198 1.6 3.2 0.00 0.00 0.00 44 1018.7
20260507131803 15 157 1.6 4.8 0.00 0.00 0.00 46 1019.0
20260507130903 14 158 3.2 6.4 0.00 0.00 0.00 48 1019.0
20260507130003 13 153 1.6 3.2 0.00 0.00 0.00 53 1018.9
20260507125616 13 151 1.6 4.8 0.00 0.00 0.00 52 1019.0
20260507124503 14 51 0.0 1.6 0.00 0.00 0.00 52 1019.2
20260507123603 14 95 0.0 1.6 0.00 0.00 0.00 56 1019.0
20260507122918 13 154 1.6 3.2 0.00 0.00 0.00 56 1019.1
20260507122018 13 141 1.6 4.8 0.00 0.00 0.00 57 1019.0
20260507120903 13 140 1.6 4.8 0.00 0.00 0.00 59 1018.9
20260507120003 13 134 0.0 3.2 0.00 0.00 0.00 58 1018.9
20260507115404 13 137 0.0 3.2 0.00 0.00 0.00 57 1019.1
20260507114504 14 339 0.0 3.2 0.00 0.00 0.00 56 1019.0
20260507113603 14 108 1.6 3.2 0.00 0.00 0.00 56 1019.3
20260507112918 12 61 1.6 3.2 0.00 0.00 0.00 63 1019.1
20260507111803 13 166 0.0 3.2 0.00 0.00 0.00 58 1019.2
20260507110903 13 248 0.0 4.8 0.00 0.00 0.00 56 1019.4
20260507110003 13 199 1.6 4.8 0.00 0.00 0.00 55 1019.3
20260507105404 13 167 1.6 4.8 0.00 0.00 0.00 53 1019.4
20260507104503 13 155 1.6 6.4 0.00 0.00 0.00 56 1019.3
20260507103603 15 185 1.6 6.4 0.00 0.00 0.00 53 1019.3
20260507102704 15 214 1.6 3.2 0.00 0.00 0.00 52 1019.4
20260507101803 14 187 1.6 6.4 0.00 0.00 0.00 56 1019.4
20260507100903 13 157 1.6 3.2 0.00 0.00 0.00 57 1019.4
20260507100003 12 234 0.0 3.2 0.00 0.00 0.00 66 1019.6
20260507095617 12 198 0.0 1.6 0.00 0.00 0.00 65 1019.5
20260507094503 12 178 1.6 4.8 0.00 0.00 0.00 66 1019.6
20260507093603 12 198 3.2 6.4 0.00 0.00 0.00 60 1019.5
20260507092919 13 138 1.6 6.4 0.00 0.00 0.00 63 1019.5
20260507092017 13 158 1.6 6.4 0.00 0.00 0.00 58 1019.6
20260507090903 11 293 1.6 3.2 0.00 0.00 0.00 67 1019.6
20260507090003 11 190 1.6 4.8 0.00 0.00 0.00 69 1019.6
20260507085403 11 241 1.6 4.8 0.00 0.00 0.00 72 1019.5
20260507084503 11 246 1.6 3.2 0.00 0.00 0.00 72 1019.7
20260507083603 11 220 0.0 3.2 0.00 0.00 0.00 71 1019.7
20260507082703 12 136 0.0 4.8 0.00 0.00 0.00 69 1019.4
20260507081803 11 254 1.6 3.2 0.00 0.00 0.00 74 1019.4
20260507080903 11 156 1.6 6.4 0.00 0.00 0.00 75 1019.4
20260507080003 11 169 0.0 6.4 0.00 0.00 0.00 78 1019.3
20260507075403 10 151 1.6 3.2 0.00 0.00 0.00 81 1019.4
20260507074504 9 133 1.6 4.8 0.00 0.00 0.00 83 1019.4
20260507073603 10 147 0.0 3.2 0.00 0.00 0.00 85 1019.4
20260507072703 9 146 1.6 4.8 0.00 0.00 0.00 88 1019.2
20260507072018 8 165 1.6 3.2 0.00 0.00 0.00 89 1019.3
20260507070903 7 156 1.6 1.6 0.00 0.00 0.00 94 1019.5
20260507070004 7 157 1.6 3.2 0.00 0.00 0.00 96 1019.4
20260507065618 7 165 1.6 3.2 0.00 0.00 0.00 96 1019.2
20260507064504 6 177 0.0 1.6 0.00 0.00 0.00 97 1019.3
20260507063603 6 0 0.0 0.0 0.00 0.00 0.00 97 1019.3
20260507062703 5 0 0.0 0.0 0.00 0.00 0.00 97 1019.2
20260507061804 5 184 0.0 1.6 0.00 0.00 0.00 97 1019.3
20260507060903 5 0 0.0 0.0 0.00 0.00 0.00 97 1019.4
20260507060003 5 0 0.0 0.0 0.00 0.00 0.00 97 1019.3
20260507055404 5 0 0.0 0.0 0.00 0.00 0.00 97 1019.1
20260507054503 4 0 0.0 0.0 0.00 0.00 0.00 97 1019.2
20260507053603 4 0 0.0 0.0 0.00 0.00 0.00 97 1019.1
20260507052703 3 0 0.0 0.0 0.00 0.00 0.00 96 1019.1
20260507051803 3 0 0.0 0.0 0.00 0.00 0.00 96 1019.1
20260507051116 3 0 0.0 0.0 0.00 0.00 0.00 96 1019.1
20260507050218 3 270 0.0 1.6 0.00 0.00 0.00 96 1019.1
20260507045403 3 270 0.0 1.6 0.00 0.00 0.00 96 1018.9
20260507044503 2 0 0.0 0.0 0.00 0.00 0.00 96 1018.8
20260507043604 2 0 0.0 0.0 0.00 0.00 0.00 96 1019.0
20260507042705 2 0 0.0 0.0 0.00 0.00 0.00 96 1018.8
20260507042017 2 0 0.0 0.0 0.00 0.00 0.00 96 1018.8
20260507040903 2 0 0.0 0.0 0.00 0.00 0.00 96 1018.8
20260507040003 2 0 0.0 0.0 0.00 0.00 0.00 95 1018.6
20260507035403 3 0 0.0 0.0 0.00 0.00 0.00 95 1018.6
20260507034503 3 0 0.0 0.0 0.00 0.00 0.00 95 1018.8
20260507033603 3 0 0.0 0.0 0.00 0.00 0.00 95 1018.8
20260507032704 3 0 0.0 0.0 0.00 0.00 0.00 95 1018.7
20260507031803 3 0 0.0 0.0 0.00 0.00 0.00 95 1018.7
20260507031118 3 0 0.0 0.0 0.00 0.00 0.00 95 1018.7
20260507030003 4 0 0.0 0.0 0.00 0.00 0.00 95 1018.6
20260507025403 4 0 0.0 0.0 0.00 0.00 0.00 95 1018.7
20260507024718 4 0 0.0 0.0 0.00 0.00 0.00 95 1018.6
20260507023603 5 0 0.0 0.0 0.00 0.00 0.00 95 1018.7
20260507022703 5 0 0.0 0.0 0.00 0.00 0.00 95 1018.7
20260507022018 5 260 0.0 1.6 0.00 0.00 0.00 95 1018.8
20260507020904 5 0 0.0 0.0 0.00 0.00 0.00 95 1018.6
20260507020216 4 0 0.0 0.0 0.00 0.00 0.00 95 1018.8
20260507015616 4 0 0.0 0.0 0.00 0.00 0.00 95 1018.5
20260507014503 3 0 0.0 0.0 0.00 0.00 0.00 95 1018.5
20260507013603 3 0 0.0 0.0 0.00 0.00 0.00 95 1018.6
20260507012703 3 0 0.0 0.0 0.00 0.00 0.00 95 1018.7
20260507011803 3 0 0.0 0.0 0.00 0.00 0.00 95 1018.6
20260507010003 3 0 0.0 0.0 0.00 0.00 0.00 94 1018.5
20260507005403 3 0 0.0 0.0 0.00 0.00 0.00 94 1018.6
20260507004503 3 0 0.0 0.0 0.00 0.00 0.00 94 1018.7
20260507003603 3 0 0.0 0.0 0.00 0.00 0.00 94 1018.4
20260507002704 3 0 0.0 0.0 0.00 0.00 0.00 94 1018.6
20260507001803 4 248 0.0 1.6 0.00 0.00 0.00 94 1018.6
20260507000904 4 0 0.0 0.0 0.00 0.00 0.00 93 1018.7
20260507000003 4 0 0.0 0.0 0.00 0.00 0.00 93 1018.8
20260506235403 5 231 0.0 1.6 0.00 0.00 0.00 93 1018.5